User: anonymous
Location: Unspecified
(0.0000°N, 0.0000°E)
Time: 08:00:01
(UTC+00:00)
Language:

ELEKTRO-L - Orbit

View from above orbital plane
View from above orbital plane
View from above satellite
View from above satellite

Ground track
Ground track

The orbit data is extracted from the following two-line orbital elements,

1 37344U 11001A   14240.08467847  .00000000  00000-0  10000-3 0   680
2 37344 000.3680 079.9882 0003797 147.7512 215.2024 01.00270604 13253
Epoch (UTC): 28 August 2014 02:01:56
Eccentricity: 0.0003797
inclination: 0.3680°
perigee height: 35770 km
apogee height: 35802 km
right ascension of ascending node: 79.9882°
argument of perigee: 147.7512°
revolutions per day: 1.00270604
mean anomaly at epoch: 215.2024°
orbit number at epoch: 1325

The dashed part of the orbit path shows where the satellite is in the earth's shadow,  

DLR